Location: Pietrelcina
(41.2000°N, 14.8500°E)
Time: 23:10:17
(UTC+00:00)

Daily predictions for brighter satellites

Satellite Brightness Start Highest point End
(mag) Time Altitude Azimuth Time Altitude Azimuth Time Altitude Azimuth
Meteor 1-18 Rocket 4.4 18:56:54 10° S 19:02:44 65° E 19:08:36 10° NNE
USA 215 3.4 18:56:51 10° SE 19:03:23 82° SW 19:09:57 10° NW
SL-08 R/B 3.9 19:05:19 10° N 19:09:56 61° WNW 19:14:27 10° SSW
NOSS 3-4 (A) 3.2 19:05:42 10° SSW 19:10:51 56° ESE 19:16:22 10° NE
NOSS 3-4 (C) 3.2 19:05:49 10° SSW 19:10:58 55° ESE 19:16:28 10° NE
MOS 1 4.5 19:08:41 10° SSE 19:14:15 62° ENE 19:19:51 10° N
Meteor 2-4 Rocket 4.3 19:09:06 10° SSW 19:14:58 67° WNW 19:20:53 10° N
Delta 2 Rocket 4.3 19:13:25 10° WSW 19:16:52 29° SSW 19:20:28 10° SE
Okean-O 3.3 19:13:23 10° SE 19:17:27 39° ENE 19:21:32 10° N
Cosmos 1110 Rocket 4.2 19:12:25 10° NNW 19:17:37 61° ENE 19:22:43 10° SSE
Cosmos 1934 Rocket 4.3 19:12:00 10° N 19:18:23 74° W 19:24:40 10° S
COSMOS 2428 2.8 19:14:57 10° NNW 19:20:41 89° WSW 19:26:24 10° SSE
Cosmos 1818 4.1 19:16:13 10° S 19:21:08 36° ESE 19:26:05 10° NE
Cosmos 1331 Rocket 4.1 19:16:39 10° NNW 19:21:45 61° ENE 19:26:48 10° SSE
USA 305 2.9 19:18:40 10° SSW 19:22:27 44° SE 19:26:01 10° ENE
Cosmos 1633 Rocket 4.3 19:20:44 10° NNE 19:24:17 24° ENE 19:27:33 11° SE
Lacrosse 4 Rocket 3.7 19:22:34 10° NNE 19:24:48 14° NE 19:27:00 10° ENE
Cosmos 2297 Rocket 2.2 19:23:58 10° SSW 19:29:36 73° ESE 19:35:15 10° NNE
Cosmos 1408 Rocket 4.4 19:26:06 10° NNW 19:30:14 50° W 19:34:22 10° SSW
Cosmos 614 Rocket 4.3 19:27:01 10° S 19:31:57 47° ESE 19:36:52 10° NNE
Cosmos 1500 Rocket 4.1 19:28:01 10° NNW 19:32:23 60° W 19:36:44 10° S
Sich 1 4.0 19:28:43 10° NNW 19:32:42 44° W 19:36:40 10° SSW
Cosmos 1328 Rocket 4.1 19:29:28 10° SSE 19:33:33 40° E 19:37:40 10° NNE
Ariane Rocket 4.4 19:29:52 10° ESE 19:33:46 23° ENE 19:37:42 10° NNE
ARIANE 6 FM1 Upper Stage 3.2 19:32:42 10° NNW 19:36:45 49° NE 19:40:10 14° ESE
NOSS 0 Rocket 4.0 19:31:36 10° NNW 19:37:51 89° ENE 19:43:43 12° SSE
Cosmos 1455 2.7 19:38:48 10° NNE 19:41:05 24° ENE 19:42:16 18° ESE
CZ-4B R/B 4.1 19:40:58 10° S 19:45:54 57° W 19:51:01 10° NNW
ATLAS 2A CENTAUR R/B 4.3 19:36:34 10° WSW 19:46:51 23° SW 19:50:35 12° SSE
Meteor PRIRODA 3.9 19:44:38 10° S 19:47:26 46° W 19:50:16 10° NNW
MetOp-B 4.4 19:42:55 10° S 19:48:15 72° WSW 19:53:38 10° NNW
Cosmos 1758 4.4 19:46:36 10° NNE 19:49:47 26° ENE 19:51:37 18° ESE
Cosmos 1727 Rocket 4.0 19:46:09 10° S 19:52:14 66° E 19:58:21 10° NNE
ATLAS CENTAUR R/B 2.6 19:52:04 10° N 19:55:20 26° NE 19:57:42 15° E
Cosmos 1452 Rocket 3.6 19:50:05 10° NNW 19:55:21 77° WSW 19:59:53 14° SSE
SL-16 R/B 3.8 19:51:17 10° N 19:55:44 23° NE 19:59:47 11° ESE
Helios 1A 3.1 19:52:46 10° N 19:56:43 70° WNW 20:00:36 10° SSW
CZ-4 R/B 4.1 19:56:17 10° WSW 19:57:44 12° W 19:59:10 10° WNW
IRS-1C Rocket 4.4 19:54:14 17° SE 19:58:06 51° ENE 20:03:11 10° N
Cosmos 2227 Rocket 2.3 19:52:42 10° S 19:58:11 57° ESE 20:03:42 10° NNE
Terra 1.8 19:54:12 13° S 19:58:28 83° WSW 20:03:11 10° NNW
SPOT 5 4.2 19:55:54 10° SSW 19:59:56 33° W 20:04:10 10° NNW
Cosmos 1515 Rocket 4.4 19:57:53 19° SE 20:00:18 33° E 20:04:16 10° NNE
COSMOS 2455 3.0 19:57:04 10° NNW 20:03:04 63° ENE 20:07:19 20° SE
Cosmos 2263 Rocket 3.0 19:59:46 17° SSE 20:03:04 30° ESE 20:07:57 10° NE
Cosmos 2100 Rocket 4.2 19:58:19 10° N 20:04:21 53° E 20:08:37 19° SSE
RESURS DK-1 2.7 20:03:32 18° S 20:06:03 39° ESE 20:09:48 10° NE
USA 276 2.0 20:04:37 10° NW 20:06:34 40° NNE 20:07:05 32° ENE
Okean O Rocket 2.8 20:07:04 10° SSW 20:11:04 37° W 20:15:05 10° NNW
Cosmos 1980 3.7 20:05:56 10° NNW 20:11:36 79° WSW 20:15:38 20° SSE
Spot 2 Rocket 3.5 20:07:49 18° SSE 20:11:38 87° ENE 20:16:43 10° NNW
Cosmos 1300 4.1 20:08:59 10° NNW 20:11:42 27° W 20:14:24 10° SSW
Helios 1B rocket 4.3 20:12:58 10° SSW 20:15:53 22° W 20:18:49 10° NW
ERS-1 Rocket 3.9 20:17:13 10° S 20:21:54 42° W 20:26:40 10° NNW
Cosmos 1437 Rocket 2.9 20:21:19 34° SE 20:22:17 44° E 20:25:42 10° NNE
Cosmos 921 Rocket 3.2 20:18:24 10° SSW 20:22:36 69° WNW 20:26:55 10° NNE
Cosmos 2219 3.7 20:20:35 22° SSE 20:23:36 39° ESE 20:28:54 10° NE
USA 238 DEB 4.1 20:17:40 10° NW 20:25:11 74° WSW 20:30:45 22° SSE
USA 238 4.1 20:17:45 10° NW 20:25:18 74° WSW 20:30:51 22° SSE
SL-14 R/B 3.9 20:27:12 13° SSW 20:30:33 55° W 20:34:25 10° N
Cosmos 2123 Rocket 4.0 20:26:43 20° S 20:31:13 68° E 20:37:26 10° NNE
Geosat 4.2 20:26:59 10° NE 20:31:52 49° ESE 20:34:33 25° S
Cosmos 2082 4.4 20:31:12 27° SE 20:33:10 35° ESE 20:38:17 10° NE
Cosmos 967 Rocket 4.5 20:29:50 10° NNW 20:36:14 86° WSW 20:39:52 28° SSE
USA 290 3.7 20:41:32 24° ENE 20:41:32 24° ENE 20:43:26 10° NE
Cosmos 1809 Rocket 4.4 20:38:15 18° S 20:43:01 89° W 20:49:12 10° N
Cosmos 2237 Rocket 3.0 20:39:57 10° NW 20:45:18 45° WSW 20:48:43 21° SSW
Cosmos 1459 Rocket 4.1 20:39:08 10° N 20:45:28 81° W 20:49:28 25° S
Meteor 2-14 Rocket 4.4 20:41:09 19° S 20:45:42 90° W 20:51:52 10° N
SL-4 R/B 2.1 20:47:41 47° SE 20:47:47 47° SE 20:51:43 10° ENE
Cosmos 1140 Rocket 4.1 20:46:57 32° SE 20:47:57 35° ESE 20:52:35 10° NE
Meteor 1-15 Rocket 4.1 20:44:43 10° N 20:50:22 89° E 20:53:03 32° S
Cosmos 1802 Rocket 4.0 20:43:58 10° N 20:50:27 84° E 20:53:55 29° S
Cosmos 2061 Rocket 4.4 20:45:57 10° N 20:52:02 49° ENE 20:54:39 31° SE
Cosmos 1953 3.0 20:52:30 10° N 20:55:58 34° ENE 20:56:11 34° E
Meteor 2-21 Rocket 4.5 20:55:45 32° SSE 20:58:39 64° E 21:04:44 10° NNE
SL-08 R/B 4.4 20:52:59 10° N 20:59:04 71° E 21:01:43 35° SSE
Lacrosse 4 Rocket 1.4 20:58:59 10° NNW 21:03:12 70° WSW 21:04:06 51° S
DNEPR-1 R/B 4.2 20:57:25 10° SW 21:03:43 79° WNW 21:08:53 10° NNE
Cosmos 2016 Rocket 4.0 21:03:14 10° N 21:09:35 83° W 21:12:39 33° S
Cosmos 407 Rocket 4.3 21:10:51 31° ESE 21:10:58 31° E 21:15:26 10° NE
Ariane Rocket 3.8 21:09:58 26° SSW 21:12:21 43° W 21:17:11 10° NNW
Cosmos 1844 Rocket 4.0 21:13:11 22° E 21:13:11 22° E 21:17:17 10° NE
Cosmos 2228 Rocket 4.2 21:17:10 29° E 21:17:10 29° E 21:20:55 10° NNE
CZ-4C R/B 4.1 21:16:19 10° NNE 21:18:25 31° NE 21:18:25 31° NE
GP-B 3.1 21:18:41 10° N 21:23:03 76° W 21:23:59 54° SSW
Cosmos 1269 Rocket 4.1 21:20:32 31° SSW 21:23:08 76° WNW 21:28:26 10° NNE
IRIDIUM 114 4.5 21:24:26 47° SE 21:25:30 57° E 21:30:37 10° N
Cosmos 1707 Rocket 4.1 21:28:01 41° E 21:28:01 41° E 21:31:56 10° NNE
Cosmos 2084 Rocket 3.4 21:24:56 10° NW 21:29:02 63° WSW 21:29:07 63° SW
Meteor 1-12 Rocket 4.4 21:23:30 10° NNW 21:29:23 73° W 21:31:34 41° S
ATLAS CENTAUR R/B 2.6 21:28:07 10° WNW 21:31:05 26° WSW 21:31:05 26° WSW
Cosmos 489 Rocket 4.4 21:26:46 10° NNW 21:32:59 83° WSW 21:35:02 45° S
Cosmos 1933 Rocket 4.4 21:29:33 10° NNW 21:33:40 41° W 21:34:40 35° SW
IRIDIUM 103 4.3 21:33:34 54° SSE 21:34:38 70° E 21:39:49 10° N
ATLAS 2AS CENTAUR R/B 4.1 21:37:43 20° ESE 21:37:43 20° ESE 21:42:21 10° ENE
ALOS 2 4.1 21:37:03 23° E 21:37:41 24° ENE 21:41:10 10° NNE
SL-16 R/B 2.5 21:34:39 10° NNW 21:40:11 56° WSW 21:41:38 44° SSW
Cosmos 2227 Rocket 4.4 21:38:12 10° WSW 21:42:35 23° NW 21:47:00 10° N
Cosmos 2344 4.4 21:36:30 10° NNW 21:44:39 60° NE 21:52:06 22° ESE
Cosmos 1733 Rocket 3.2 21:40:37 10° N 21:44:56 59° E 21:45:01 59° E
Cosmos 2263 Rocket 3.4 21:41:31 10° SW 21:46:48 39° WNW 21:52:08 10° N
Cosmos 2233 Rocket 4.3 21:41:02 10° NNW 21:47:14 60° W 21:49:37 37° SSW
Cosmos 1869 Rocket 4.2 21:43:50 10° NNW 21:48:00 44° W 21:48:34 42° WSW
Okean 2 3.6 21:50:02 58° W 21:50:05 58° W 21:53:57 10° N
Okean 3 3.6 21:50:57 58° W 21:51:12 59° W 21:55:15 10° N
IRIDIUM 106 4.3 21:51:50 57° SSW 21:52:54 80° W 21:58:09 10° N
CZ-2C R/B 3.5 21:51:06 10° NNE 21:55:39 89° E 21:56:01 77° S
Aureole 3 Rocket 3.7 21:54:51 10° N 21:57:14 36° NE 21:57:14 36° NE
SeaSat 1 4.4 21:57:55 15° E 22:00:19 21° NE 22:03:57 10° N
ASTEX 1 3.3 21:56:43 10° N 22:01:42 81° W 22:02:22 66° SSW
Cosmos 1943 3.2 21:56:09 10° NNW 22:01:53 75° ENE 22:03:04 56° SE
MetOp-A 3.7 22:10:28 74° SSW 22:10:46 79° WSW 22:15:24 10° NNW
Cosmos 1862 Rocket 3.7 22:11:30 64° W 22:11:39 64° W 22:16:04 10° N
Cosmos 1763 Rocket 3.4 22:06:42 10° NNW 22:11:49 67° ENE 22:12:23 61° ESE
Cosmos 1271 Rocket 4.0 22:16:29 32° NE 22:16:29 32° NE 22:18:44 10° NNE
Okean 1-7 3.1 22:19:41 70° NNW 22:19:41 70° NNW 22:23:27 10° N
Cosmos 1603 4.1 22:13:51 10° NNW 22:19:23 55° ENE 22:20:41 45° ESE
ARIANE 5 R/B 2.8 22:20:49 62° W 22:20:49 62° W 22:25:09 10° NNW
SL-8 R/B 3.9 22:18:49 10° WNW 22:22:54 60° W 22:22:54 60° W
SL-4 R/B 3.5 22:22:03 10° W 22:25:53 36° NNW 22:29:36 10° NE
Spot 4 3.8 22:30:33 73° WSW 22:30:40 73° WSW 22:35:31 10° NNW
SJ 16-02 2.6 22:38:57 31° ENE 22:38:57 31° ENE 22:41:57 10° NE
PSLV R/B 3.6 22:34:29 10° NNE 22:38:27 73° NE 22:38:27 73° NE
NOSS 3-1 (C) 4.1 22:32:36 10° NW 22:40:07 84° WSW 22:43:29 43° SSE
Cosmos 1300 Rocket 4.5 22:39:35 10° N 22:43:39 39° ENE 22:43:39 39° ENE
Cosmos 676 Rocket 4.0 22:44:37 65° ESE 22:44:43 65° ESE 22:49:55 10° NNE
USA 307 3.7 22:54:11 42° N 22:54:11 42° N 22:57:27 10° NE
Cosmos 1844 Rocket 3.3 22:54:47 39° WSW 22:56:28 52° WNW 23:02:00 10° NNE
Cosmos 1703 Rocket 3.8 22:59:24 60° NW 22:59:24 60° NW 23:03:19 10° N
Cosmos 2251 Rocket 4.4 22:59:04 36° WSW 23:00:27 43° WNW 23:05:34 10° N
Cosmos 1844 4.2 22:59:50 42° WSW 23:01:16 53° WNW 23:06:43 10° NNE
USA 234 3.2 22:56:01 10° NE 23:02:32 66° SE 23:03:50 55° S
Cosmos 1782 Rocket 3.8 22:59:46 10° N 23:03:54 64° ENE 23:03:54 64° ENE
USA 59 Rocket 0.8 23:04:13 10° NNW 23:07:53 47° NE 23:08:27 44° ENE
Cosmos 1954 Rocket 4.2 23:07:46 54° WSW 23:08:30 59° WNW 23:13:38 10° NNE
Tsikada Rocket 3.9 23:12:12 60° SSW 23:13:25 83° W 23:19:42 10° N
ALOS 2 3.9 23:14:27 30° W 23:14:27 30° W 23:17:46 10° NNW
ATLAS 3B R/B 4.4 23:07:22 10° NNW 23:14:26 34° NE 23:21:16 10° ESE
Meteor 1-24 Rocket 3.9 23:13:40 58° SW 23:14:47 72° W 23:20:44 10° N
Cosmos 540 Rocket 4.2 23:10:04 10° NW 23:14:32 39° W 23:14:32 39° W
Cosmos 304 Rocket 4.2 23:22:36 48° E 23:22:36 48° E 23:26:56 10° NNE
YAOGAN 20A 4.5 23:22:54 68° S 23:23:34 79° ESE 23:29:37 10° NE
Cosmos 1606 4.4 23:21:50 10° N 23:23:21 25° NNE 23:23:21 25° NNE
YAOGAN 20B 4.5 23:24:46 68° S 23:25:24 77° ESE 23:31:27 10° NE
Cosmos 468 Rocket 4.5 23:20:48 10° NNW 23:25:26 45° W 23:25:26 45° W
Cosmos 841 Rocket 3.3 23:21:48 10° NNW 23:27:05 86° ENE 23:27:33 74° SE
ATLAS 2AS CENTAUR R/B 2.8 23:25:05 44° SW 23:27:36 80° NW 23:34:38 10° NNE
NOSS 3-1 (A) 4.0 23:20:57 10° NW 23:28:29 83° WSW 23:32:25 37° SSE
Cosmos 2279 Rocket 4.2 23:22:40 10° N 23:28:49 62° E 23:30:32 45° SE
Meteor 2-5 Rocket 4.1 23:27:46 50° WSW 23:28:57 59° WNW 23:34:50 10° N
BREEZE-M DEB (TANK) 3.1 23:20:42 10° WSW 23:29:35 84° NW 23:32:37 10° ENE
H-2A R/B 3.6 23:31:18 32° ENE 23:31:18 32° ENE 23:34:25 10° N
Cosmos 2242 Rocket 3.7 23:31:50 69° ENE 23:31:50 69° ENE 23:36:05 10° NNE
Cosmos 1850 Rocket 4.0 23:32:32 64° SE 23:32:48 65° ESE 23:37:55 10° NNE
SeaSat 1 2.6 23:37:33 58° W 23:37:33 58° W 23:42:10 10° NW
IDEFIX/ARIANE 42P 4.3 23:36:19 10° NE 23:40:11 21° E 23:41:28 19° ESE
Cosmos 1833 Rocket 3.5 23:35:58 10° NNW 23:41:23 46° ENE 23:44:08 26° ESE
